Regional Weather Roundup
Issued by NWS Goodland, KS

Home | Current Version | Previous Version | Text Only | Print | Product List | Glossary On
Versions: 1 2 3 4 5 6 7 8 9 10 11 12 13 14 15 16 17 18 19 20 21 22 23 24 25 26 27 28 29 30 31 32 33 34 35 36 37 38 39 40 41 42 43 44 45 46 47 48 49 50
805
ASUS43 KGLD 300208
RWRGLD

GOODLAND FORECAST AREA HOURLY WEATHER ROUNDUP
NATIONAL WEATHER SERVICE GOODLAND KS
800 PM MDT MON MAY 29 2017

...OFFICIAL OBSERVATIONS...

CITY           SKY/WX    TMP DP  RH WIND       PRES   REMARKS
GOODLAND KS    CLOUDY    60  49  66 W25G33    30.16R
HILL CITY KS   CLEAR     68  51  54 CALM      30.06S
IMPERIAL NEB   CLEAR     62  43  49 N6        30.10R
MCCOOK NEB     CLEAR     67  42  40 NE6       30.07R
AKRON CO       MOCLDY    61  45  55 SW12      30.18R
BURLINGTON CO  RAIN      54  49  83 N13G24    30.21S
LIMON CO       CLOUDY    52  48  86 CALM      30.22R
$$

...UNOFFICIAL OBSERVATIONS...

CITY           SKY/WX    TMP DP  RH WIND       PRES   REMARKS
LENORA KS        N/A     66  32  28 MISG        N/A
NORTON KS      PTCLDY    57  45  62 N6        30.05S
SHARON SPRINGS   N/A     63  46  54 NW18G28     N/A
TRENTON NEB      N/A     66  32  28 CALM        N/A
KIT CARSON CO    N/A     55  48  78 MISG        N/A
YUMA CO        CLOUDY    59  36  41 SW12      30.16R
$$




USA.gov is the U.S. government's official web portal to all federal, state and local government web resources and services.